Tracking 30970 objects as of 3-Jul-2025
HD Live streaming from Space Station
objects crossing your sky now

THOR 2A

Track THOR 2A now!
THOR 2A is classified as:


NORAD ID: 24808
Int'l Code: 1997-025A
Perigee: 36,152.3 km
Apogee: 36,172.6 km
Inclination: 11.4 °
Period: 1,455.0 minutes
Semi major axis: 42533 km
RCS: 15.8489 m2 (large)
Launch date: May 20, 1997
Source: Norway (NOR)
Launch site: AIR FORCE EASTERN TEST RANGE (AFETR)

15 Ku-band; Nordic region, northern Europe.
Your satellite tracking list
Your tracking list is empty




NASA's NSSDC Master Catalog

Two Line Element Set (TLE):
1 24808U 97025A   25183.55159123 -.00000103  00000-0  00000-0 0  9990
2 24808  11.4494  35.2790 0002394 332.8311  35.4905  0.98970823 42628
Source of the keplerian elements: AFSPC